Time,TemperatureF,DewpointF,PressureIn,WindDirection,WindDirectionDegrees,WindSpeedMPH,WindSpeedGustMPH,Humidity,HourlyPrecipIn,Conditions,Clouds,dailyrainin,SolarRadiationWatts/m^2,SoftwareType,DateUTC
2013-11-20 00:02:00,28.0,14.0,-100.00,West,281,2.0,8.0,56,0.00,,,0.01,0.000000,,2013-11-20 05:02:00,
2013-11-20 00:10:00,27.0,13.0,-100.00,WNW,293,3.0,11.0,56,0.00,,,0.00,0.000000,,2013-11-20 05:10:00,
2013-11-20 00:43:00,27.0,13.0,-100.00,WNW,293,3.0,11.0,56,0.00,,,0.00,0.000000,,2013-11-20 05:43:00,
2013-11-20 00:53:00,27.0,13.0,-100.00,WNW,293,3.0,11.0,56,0.00,,,0.00,0.000000,,2013-11-20 05:53:00,
2013-11-20 01:02:00,27.0,13.0,-100.00,WNW,293,3.0,11.0,56,0.00,,,0.00,0.000000,,2013-11-20 06:02:00,
2013-11-20 01:10:00,27.0,12.0,-100.00,West,274,3.0,10.0,53,0.00,,,0.00,0.000000,,2013-11-20 06:10:00,
2013-11-20 01:42:00,27.0,12.0,-100.00,West,274,3.0,10.0,53,0.00,,,0.00,0.000000,,2013-11-20 06:42:00,
2013-11-20 01:52:00,27.0,12.0,-100.00,West,274,3.0,10.0,53,0.00,,,0.00,0.000000,,2013-11-20 06:52:00,
2013-11-20 02:01:00,27.0,12.0,-100.00,West,274,3.0,10.0,53,0.00,,,0.00,0.000000,,2013-11-20 07:01:00,
2013-11-20 02:10:00,27.0,11.0,-100.00,West,270,3.0,11.0,51,0.00,,,0.00,0.000000,,2013-11-20 07:10:00,
2013-11-20 02:42:00,27.0,11.0,-100.00,West,270,3.0,11.0,51,0.00,,,0.00,0.000000,,2013-11-20 07:42:00,
2013-11-20 02:52:00,27.0,11.0,-100.00,West,270,3.0,11.0,51,0.00,,,0.00,0.000000,,2013-11-20 07:52:00,
2013-11-20 03:02:00,27.0,11.0,-100.00,West,270,3.0,11.0,51,0.00,,,0.00,0.000000,,2013-11-20 08:02:00,
2013-11-20 03:10:00,26.0,11.0,-100.00,WSW,255,2.0,12.0,52,0.00,,,0.00,0.000000,,2013-11-20 08:10:00,
2013-11-20 03:42:00,26.0,11.0,-100.00,WSW,255,2.0,12.0,52,0.00,,,0.00,0.000000,,2013-11-20 08:42:00,
2013-11-20 03:52:00,26.0,11.0,-100.00,WSW,255,2.0,12.0,52,0.00,,,0.00,0.000000,,2013-11-20 08:52:00,
2013-11-20 04:02:00,26.0,11.0,-100.00,WSW,255,2.0,12.0,52,0.00,,,0.00,0.000000,,2013-11-20 09:02:00,
2013-11-20 04:10:00,26.0,12.0,-100.00,SW,222,2.0,12.0,55,0.00,,,0.00,0.000000,,2013-11-20 09:10:00,
2013-11-20 04:44:00,26.0,12.0,-100.00,SW,222,2.0,12.0,55,0.00,,,0.00,0.000000,,2013-11-20 09:44:00,
2013-11-20 04:54:00,26.0,12.0,-100.00,SW,222,2.0,12.0,55,0.00,,,0.00,0.000000,,2013-11-20 09:54:00,
2013-11-20 05:03:00,26.0,12.0,-100.00,SW,222,2.0,12.0,55,0.00,,,0.00,0.000000,,2013-11-20 10:03:00,
2013-11-20 05:10:00,26.0,12.0,-100.00,SW,231,3.0,9.0,56,0.00,,,0.00,0.000000,,2013-11-20 10:10:00,
2013-11-20 05:43:00,26.0,12.0,-100.00,SW,231,3.0,9.0,56,0.00,,,0.00,0.000000,,2013-11-20 10:43:00,
2013-11-20 05:53:00,26.0,12.0,-100.00,SW,231,3.0,9.0,56,0.00,,,0.00,0.000000,,2013-11-20 10:53:00,
2013-11-20 06:03:00,26.0,12.0,-100.00,SW,231,3.0,9.0,56,0.00,,,0.00,0.000000,,2013-11-20 11:03:00,
2013-11-20 06:10:00,26.0,12.0,-100.00,NE,41,2.0,9.0,54,0.00,,,0.00,0.000000,,2013-11-20 11:10:00,
2013-11-20 06:43:00,26.0,12.0,-100.00,NE,41,2.0,9.0,54,0.00,,,0.00,0.000000,,2013-11-20 11:43:00,
2013-11-20 06:52:00,26.0,12.0,-100.00,NE,41,2.0,9.0,54,0.00,,,0.00,0.000000,,2013-11-20 11:52:00,
2013-11-20 07:02:00,26.0,12.0,-100.00,NE,41,2.0,9.0,54,0.00,,,0.00,0.000000,,2013-11-20 12:02:00,
2013-11-20 07:10:00,25.0,12.0,-100.00,NE,49,2.0,5.0,58,0.00,,,0.00,2.000000,,2013-11-20 12:10:00,
2013-11-20 07:42:00,25.0,12.0,-100.00,NE,49,2.0,5.0,58,0.00,,,0.00,2.000000,,2013-11-20 12:42:00,
2013-11-20 07:52:00,25.0,12.0,-100.00,NE,49,2.0,5.0,58,0.00,,,0.00,2.000000,,2013-11-20 12:52:00,
2013-11-20 08:02:00,25.0,12.0,-100.00,NE,49,2.0,5.0,58,0.00,,,0.00,2.000000,,2013-11-20 13:02:00,
2013-11-20 08:10:00,25.0,13.0,-100.00,NNE,32,2.0,7.0,59,0.00,,,0.00,16.000000,,2013-11-20 13:10:00,
2013-11-20 08:42:00,25.0,13.0,-100.00,NNE,32,2.0,7.0,59,0.00,,,0.00,16.000000,,2013-11-20 13:42:00,
2013-11-20 08:52:00,25.0,13.0,-100.00,NNE,32,2.0,7.0,59,0.00,,,0.00,16.000000,,2013-11-20 13:52:00,
2013-11-20 09:02:00,25.0,13.0,-100.00,NNE,32,2.0,7.0,59,0.00,,,0.00,16.000000,,2013-11-20 14:02:00,
2013-11-20 09:10:00,26.0,12.0,-100.00,West,259,3.0,7.0,55,0.00,,,0.00,25.000000,,2013-11-20 14:10:00,
2013-11-20 09:42:00,26.0,12.0,-100.00,West,259,3.0,7.0,55,0.00,,,0.00,25.000000,,2013-11-20 14:42:00,
2013-11-20 09:52:00,26.0,12.0,-100.00,West,259,3.0,7.0,55,0.00,,,0.00,25.000000,,2013-11-20 14:52:00,
2013-11-20 10:02:00,26.0,12.0,-100.00,West,259,3.0,7.0,55,0.00,,,0.00,25.000000,,2013-11-20 15:02:00,
2013-11-20 10:10:00,28.0,12.0,-100.00,North,357,3.0,8.0,50,0.00,,,0.00,37.000000,,2013-11-20 15:10:00,
2013-11-20 10:43:00,28.0,12.0,-100.00,North,357,3.0,8.0,50,0.00,,,0.00,37.000000,,2013-11-20 15:43:00,
2013-11-20 10:54:00,28.0,12.0,-100.00,North,357,3.0,8.0,50,0.00,,,0.00,37.000000,,2013-11-20 15:54:00,
2013-11-20 11:03:00,28.0,12.0,-100.00,North,357,3.0,8.0,50,0.00,,,0.00,37.000000,,2013-11-20 16:03:00,
2013-11-20 11:10:00,30.0,11.0,-100.00,NNE,24,3.0,8.0,45,0.00,,,0.00,33.000000,,2013-11-20 16:10:00,
2013-11-20 11:43:00,30.0,11.0,-100.00,NNE,24,3.0,8.0,45,0.00,,,0.00,33.000000,,2013-11-20 16:43:00,
2013-11-20 11:52:00,30.0,11.0,-100.00,NNE,24,3.0,8.0,45,0.00,,,0.00,33.000000,,2013-11-20 16:52:00,
2013-11-20 12:02:00,30.0,11.0,-100.00,NNE,24,3.0,8.0,45,0.00,,,0.00,33.000000,,2013-11-20 17:02:00,
2013-11-20 12:10:00,32.0,9.0,-100.00,ENE,65,2.0,6.0,38,0.00,,,0.00,54.000000,,2013-11-20 17:10:00,
2013-11-20 12:42:00,32.0,9.0,-100.00,ENE,65,2.0,6.0,38,0.00,,,0.00,54.000000,,2013-11-20 17:42:00,
2013-11-20 12:52:00,32.0,9.0,-100.00,ENE,65,2.0,6.0,38,0.00,,,0.00,54.000000,,2013-11-20 17:52:00,
2013-11-20 13:02:00,32.0,9.0,-100.00,ENE,65,2.0,6.0,38,0.00,,,0.00,54.000000,,2013-11-20 18:02:00,
2013-11-20 13:10:00,36.0,9.0,-100.00,NW,309,3.0,6.0,32,0.00,,,0.00,189.000000,,2013-11-20 18:10:00,
2013-11-20 13:43:00,36.0,9.0,-100.00,NW,309,3.0,6.0,32,0.00,,,0.00,189.000000,,2013-11-20 18:43:00,
2013-11-20 13:52:00,36.0,9.0,-100.00,NW,309,3.0,6.0,32,0.00,,,0.00,189.000000,,2013-11-20 18:52:00,
2013-11-20 14:02:00,36.0,9.0,-100.00,NW,309,3.0,6.0,32,0.00,,,0.00,189.000000,,2013-11-20 19:02:00,
2013-11-20 14:10:00,36.0,9.0,-100.00,NNE,12,2.0,9.0,32,0.00,,,0.00,115.000000,,2013-11-20 19:10:00,
2013-11-20 14:42:00,36.0,9.0,-100.00,NNE,12,2.0,9.0,32,0.00,,,0.00,115.000000,,2013-11-20 19:42:00,
2013-11-20 14:52:00,36.0,9.0,-100.00,NNE,12,2.0,9.0,32,0.00,,,0.00,115.000000,,2013-11-20 19:52:00,
2013-11-20 15:01:00,36.0,9.0,-100.00,NNE,12,2.0,9.0,32,0.00,,,0.00,115.000000,,2013-11-20 20:01:00,
2013-11-20 15:10:00,34.0,9.0,-100.00,WNW,302,2.0,6.0,34,0.00,,,0.00,46.000000,,2013-11-20 20:10:00,
2013-11-20 15:42:00,34.0,9.0,-100.00,WNW,302,2.0,6.0,34,0.00,,,0.00,46.000000,,2013-11-20 20:42:00,
2013-11-20 15:52:00,34.0,9.0,-100.00,WNW,302,2.0,6.0,34,0.00,,,0.00,46.000000,,2013-11-20 20:52:00,
2013-11-20 16:02:00,34.0,9.0,-100.00,WNW,302,2.0,6.0,34,0.00,,,0.00,46.000000,,2013-11-20 21:02:00,
2013-11-20 16:10:00,30.0,7.0,-100.00,SE,130,0.0,6.0,37,0.00,,,0.00,16.000000,,2013-11-20 21:10:00,
2013-11-20 16:43:00,30.0,7.0,-100.00,SE,130,0.0,6.0,37,0.00,,,0.00,16.000000,,2013-11-20 21:43:00,
2013-11-20 16:53:00,30.0,7.0,-100.00,SE,130,0.0,6.0,37,0.00,,,0.00,16.000000,,2013-11-20 21:53:00,
2013-11-20 17:03:00,30.0,7.0,-100.00,SE,130,0.0,6.0,37,0.00,,,0.00,16.000000,,2013-11-20 22:03:00,
2013-11-20 17:10:00,26.0,10.0,-100.00,East,88,1.0,2.0,51,0.00,,,0.00,0.000000,,2013-11-20 22:10:00,
2013-11-20 17:42:00,26.0,10.0,-100.00,East,88,1.0,2.0,51,0.00,,,0.00,0.000000,,2013-11-20 22:42:00,
2013-11-20 17:53:00,26.0,10.0,-100.00,East,88,1.0,2.0,51,0.00,,,0.00,0.000000,,2013-11-20 22:53:00,
2013-11-20 18:02:00,26.0,10.0,-100.00,East,88,1.0,2.0,51,0.00,,,0.00,0.000000,,2013-11-20 23:02:00,
2013-11-20 18:10:00,24.0,10.0,-100.00,SE,131,0.0,2.0,54,0.00,,,0.00,0.000000,,2013-11-20 23:10:00,
2013-11-20 18:43:00,24.0,10.0,-100.00,SE,131,0.0,2.0,54,0.00,,,0.00,0.000000,,2013-11-20 23:43:00,
2013-11-20 18:53:00,24.0,10.0,-100.00,SE,131,0.0,2.0,54,0.00,,,0.00,0.000000,,2013-11-20 23:53:00,
2013-11-20 19:02:00,24.0,10.0,-100.00,SE,131,0.0,2.0,54,0.00,,,0.00,0.000000,,2013-11-21 00:02:00,
2013-11-20 19:10:00,22.0,12.0,-100.00,ESE,102,0.0,2.0,66,0.00,,,0.00,0.000000,,2013-11-21 00:10:00,
2013-11-20 19:42:00,22.0,12.0,-100.00,ESE,102,0.0,2.0,66,0.00,,,0.00,0.000000,,2013-11-21 00:42:00,
2013-11-20 19:52:00,22.0,12.0,-100.00,ESE,102,0.0,2.0,66,0.00,,,0.00,0.000000,,2013-11-21 00:52:00,
2013-11-20 20:02:00,22.0,12.0,-100.00,ESE,102,0.0,2.0,66,0.00,,,0.00,0.000000,,2013-11-21 01:02:00,
2013-11-20 20:10:00,20.0,12.0,-100.00,ESE,109,1.0,2.0,70,0.00,,,0.00,0.000000,,2013-11-21 01:10:00,
2013-11-20 20:42:00,20.0,12.0,-100.00,ESE,109,1.0,2.0,70,0.00,,,0.00,0.000000,,2013-11-21 01:42:00,
2013-11-20 20:52:00,20.0,12.0,-100.00,ESE,109,1.0,2.0,70,0.00,,,0.00,0.000000,,2013-11-21 01:52:00,
2013-11-20 21:01:00,20.0,12.0,-100.00,ESE,109,1.0,2.0,70,0.00,,,0.00,0.000000,,2013-11-21 02:01:00,
2013-11-20 21:10:00,19.0,12.0,-100.00,SSE,153,0.0,0.0,74,0.00,,,0.00,0.000000,,2013-11-21 02:10:00,
2013-11-20 21:52:00,19.0,12.0,-100.00,SSE,153,0.0,0.0,74,0.00,,,0.00,0.000000,,2013-11-21 02:52:00,
2013-11-20 22:02:00,19.0,12.0,-100.00,SSE,153,0.0,0.0,74,0.00,,,0.00,0.000000,,2013-11-21 03:02:00,
2013-11-20 22:10:00,18.0,12.0,-100.00,SE,125,1.0,2.0,78,0.00,,,0.00,0.000000,,2013-11-21 03:10:00,
2013-11-20 22:43:00,18.0,12.0,-100.00,SE,125,1.0,2.0,78,0.00,,,0.00,0.000000,,2013-11-21 03:43:00,
2013-11-20 22:54:00,18.0,12.0,-100.00,SE,125,1.0,2.0,78,0.00,,,0.00,0.000000,,2013-11-21 03:54:00,
2013-11-20 23:03:00,18.0,12.0,-100.00,SE,125,1.0,2.0,78,0.00,,,0.00,0.000000,,2013-11-21 04:03:00,
2013-11-20 23:10:00,17.0,12.0,-100.00,SE,126,0.0,2.0,82,0.00,,,0.00,0.000000,,2013-11-21 04:10:00,
2013-11-20 23:43:00,17.0,12.0,-100.00,SE,126,0.0,2.0,82,0.00,,,0.00,0.000000,,2013-11-21 04:43:00,
2013-11-20 23:53:00,17.0,12.0,-100.00,SE,126,0.0,2.0,82,0.00,,,0.00,0.000000,,2013-11-21 04:53:00,